GW4516 Weather Reports


Display with metric or nautical units.
time (UTC)temp
F
wind
direction
speed
MPH
gust
MPH
rain 1hr
in
rain 24hr
in
rain mn
in
humidity
%
barometer
mb
20260504081928 51 157 0.0 1.0 0.00 0.00 0.00 57 1008.4
20260504080928 50 215 1.0 4.0 0.00 0.00 0.00 57 1008.7
20260504045033 53 157 0.0 0.0 0.00 0.00 0.00 50 1011.2
20260504044032 53 157 0.0 0.0 0.00 0.00 0.00 49 1011.5
20260504043033 54 157 0.0 0.0 0.00 0.00 0.00 48 1011.5
20260504042131 55 157 0.0 0.0 0.00 0.00 0.00 46 1011.7
20260504041132 56 157 0.0 0.0 0.00 0.00 0.00 46 1011.6
20260504040231 56 247 0.0 0.0 0.00 0.00 0.00 45 1011.7
20260504034334 56 202 0.0 0.0 0.00 0.00 0.00 45 1012.0
20260504033431 56 157 0.0 0.0 0.00 0.00 0.00 45 1012.0
20260504033332 56 157 0.0 0.0 0.00 0.00 0.00 45 1012.1
20260504032330 57 247 0.0 0.0 0.00 0.00 0.00 43 1012.1
20260504031332 57 247 0.0 0.0 0.00 0.00 0.00 42 1012.3
20260504030431 58 247 0.0 0.0 0.00 0.00 0.00 41 1012.3
20260504025433 58 247 0.0 0.0 0.00 0.00 0.00 40 1012.4
20260504024532 58 247 0.0 0.0 0.00 0.00 0.00 40 1012.4
20260504023534 59 247 0.0 0.0 0.00 0.00 0.00 39 1012.4
20260504022533 60 247 0.0 0.0 0.00 0.00 0.00 37 1012.3
20260504021631 61 247 0.0 0.0 0.00 0.00 0.00 36 1012.3
20260504020633 62 247 0.0 0.0 0.00 0.00 0.00 35 1012.3
20260504015632 63 247 0.0 0.0 0.00 0.00 0.00 34 1012.2
20260504013631 65 247 0.0 0.0 0.00 0.00 0.00 32 1012.0
20260504012631 66 247 0.0 0.0 0.00 0.00 0.00 31 1012.0
20260504011632 67 247 0.0 1.0 0.00 0.00 0.00 29 1011.9
20260504010633 68 268 1.0 2.0 0.00 0.00 0.00 29 1011.9
20260504005730 69 270 0.0 0.0 0.00 0.00 0.00 28 1011.9
20260504004733 70 270 0.0 0.0 0.00 0.00 0.00 27 1011.8
20260504002832 72 292 1.0 2.0 0.00 0.00 0.00 25 1011.9
20260504001833 72 275 1.0 4.0 0.00 0.00 0.00 25 1011.8
20260503235932 72 281 2.0 4.0 0.00 0.00 0.00 25 1011.9
20260503235832 72 257 2.0 5.0 0.00 0.00 0.00 25 1011.9
20260503233833 72 346 1.0 4.0 0.00 0.00 0.00 25 1012.1
20260503232830 72 288 1.0 3.0 0.00 0.00 0.00 25 1012.2
20260503231830 72 286 2.0 4.0 0.00 0.00 0.00 25 1012.4
20260503230833 72 289 4.0 10.0 0.00 0.00 0.00 25 1012.3
20260503224930 72 310 1.0 2.0 0.00 0.00 0.00 25 1012.4
20260503223931 72 320 1.0 2.0 0.00 0.00 0.00 24 1012.4
20260503222932 72 267 6.0 9.0 0.00 0.00 0.00 24 1012.5
20260503221932 72 287 5.0 11.0 0.00 0.00 0.00 25 1012.4
20260503220931 72 301 3.0 5.0 0.00 0.00 0.00 25 1012.6
20260503215932 72 303 2.0 4.0 0.00 0.00 0.00 25 1012.5
20260503214932 72 269 2.0 6.0 0.00 0.00 0.00 24 1012.7
20260503213931 72 351 1.0 7.0 0.00 0.00 0.00 23 1012.6
20260503212931 73 269 4.0 6.0 0.00 0.00 0.00 22 1012.6
20260503211931 73 304 2.0 9.0 0.00 0.00 0.00 21 1012.7
20260503210931 74 360 2.0 5.0 0.00 0.00 0.00 23 1012.6
20260503210831 74 294 3.0 7.0 0.00 0.00 0.00 23 1012.5
20260503205833 74 193 2.0 5.0 0.00 0.00 0.00 24 1012.8
20260503203931 74 304 2.0 4.0 0.00 0.00 0.00 23 1012.9
20260503202933 74 347 4.0 10.0 0.00 0.00 0.00 25 1012.9
20260503202032 73 294 2.0 4.0 0.00 0.00 0.00 23 1013.1
20260503201031 73 295 3.0 7.0 0.00 0.00 0.00 25 1013.3
20260503200130 72 273 4.0 8.0 0.00 0.00 0.00 24 1013.3
20260503194133 73 334 2.0 5.0 0.00 0.00 0.00 23 1013.3
20260503193132 73 24 2.0 5.0 0.00 0.00 0.00 25 1013.3
20260503192230 74 335 3.0 8.0 0.00 0.00 0.00 24 1013.3
20260503191233 74 318 3.0 8.0 0.00 0.00 0.00 25 1013.4
20260503190231 73 340 2.0 9.0 0.00 0.00 0.00 26 1013.4
20260503183333 72 15 3.0 5.0 0.00 0.00 0.00 27 1013.6
20260503182430 71 306 3.0 8.0 0.00 0.00 0.00 27 1013.5
20260503181432 72 354 5.0 18.0 0.00 0.00 0.00 28 1013.6
20260503180530 72 356 5.0 14.0 0.00 0.00 0.00 29 1013.5
20260503175532 71 286 5.0 10.0 0.00 0.00 0.00 28 1013.7
20260503174631 70 348 2.0 4.0 0.00 0.00 0.00 29 1013.7
20260503173634 71 294 6.0 11.0 0.00 0.00 0.00 29 1013.7
20260503172731 70 306 5.0 12.0 0.00 0.00 0.00 29 1013.8
20260503170732 70 314 6.0 11.0 0.00 0.00 0.00 31 1013.8
20260503140132 60 301 3.0 10.0 0.00 0.00 0.00 44 1013.5
20260503131232 53 263 2.0 4.0 0.00 0.00 0.00 53 1013.8
20260503110633 50 236 4.0 7.0 0.00 0.00 0.00 52 1013.0